Wind_Speed
34 34 27 29 34 34 35 37 38 34 36 42 38 33 26 31 32 29 30 31 32 28 27 28 29 28 29 28 28 30 32 31 29 31 31 31 31 33 36 38 37 36 35 32
36 35 29 34 36 38 37 38 38 37 38 46 43 39 33 28 29 32 30 29 32 32 28 28 29 31 32 31 30 31 33 32 33 34 33 32 33 36 37 38 37 37 37 35
39 37 35 36 38 41 39 42 40 43 39 44 44 47 39 27 30 32 30 29 31 31 32 31 31 32 34 34 33 34 36 37 36 36 35 35 36 38 40 41 41 40 38 37
42 38 38 38 41 40 44 41 43 42 42 43 42 53 42 31 32 32 32 33 33 32 33 35 34 34 36 37 36 37 39 39 39 39 39 38 39 41 42 44 44 43 41 39
40 41 39 40 37 39 41 41 42 43 45 47 46 51 46 40 37 38 37 35 33 34 34 34 34 35 37 37 39 39 41 42 42 43 42 42 43 44 45 47 47 47 45 43
39 40 41 40 41 42 44 45 46 47 48 54 46 47 48 45 48 43 40 37 37 37 37 38 35 36 38 39 40 42 44 45 46 46 46 46 47 48 48 49 50 49 48 46
48 46 47 48 48 47 46 48 50 53 54 54 50 53 50 49 52 53 49 44 45 46 42 42 42 40 40 42 44 46 47 49 49 50 50 50 50 50 50 50 51 50 49 48
54 53 50 51 51 53 53 54 55 60 58 56 56 57 57 56 54 53 56 54 50 54 52 50 49 48 48 49 50 51 52 52 53 53 52 52 51 50 50 51 52 52 52 52
59 59 57 57 57 58 58 60 56 57 58 60 59 56 56 57 58 58 58 59 57 58 57 54 52 50 52 54 55 57 57 56 56 53 54 52 52 50 51 52 53 54 55 54
61 65 60 59 60 61 62 60 60 60 60 60 62 63 62 60 60 61 61 61 61 61 62 60 57 55 57 57 55 56 53 53 55 54 54 53 51 50 50 52 53 54 56 57
63 66 64 64 62 59 58 58 59 60 61 65 66 68 65 64 64 65 66 65 64 63 62 63 62 61 62 60 57 56 55 55 56 57 55 54 54 53 52 52 53 54 56 59
60 64 66 65 63 61 59 57 56 59 62 63 65 69 68 68 67 68 69 68 66 64 62 62 64 64 64 61 59 58 60 59 60 59 58 58 57 55 54 55 55 56 58 60
60 63 66 69 64 61 61 64 65 66 64 66 65 67 64 62 61 62 64 65 66 66 65 66 67 66 63 60 60 63 64 62 60 58 57 56 57 58 57 57 58 58 61 63
62 64 65 69 72 73 68 64 62 59 56 58 62 65 64 58 57 57 58 59 61 65 66 67 67 63 62 63 63 63 63 63 63 62 61 61 61 61 65 64 63 64 65 67
64 66 65 62 65 65 74 67 63 59 58 62 62 61 60 61 61 62 63 64 72 65 66 71 72 69 65 64 63 64 66 67 68 70 70 68 66 66 70 71 74 71 70 72
64 64 63 62 63 70 65 70 71 68 67 66 63 63 63 65 71 81 75 72 66 68 69 68 68 66 67 69 68 68 71 73 73 72 74 75 78 80 82 78 77 76 79 78
57 55 57 61 58 72 79 79 76 70 67 68 75 77 71 70 72 76 81 83 71 64 67 74 79 80 81 81 76 72 78 81 79 79 83 85 82 84 85 83 77 79 81 84
45 44 45 48 46 50 56 61 67 71 71 70 72 75 78 78 77 80 83 82 81 82 80 81 81 81 79 77 78 80 82 89 93 91 90 86 89 88 78 80 82 84 88 88
31 32 32 36 39 42 41 43 46 49 50 52 52 51 50 50 49 53 59 60 61 62 64 66 67 68 66 66 63 66 67 69 75 72 74 76 79 73 76 85 86 91 90 90
36 36 34 31 33 36 37 38 40 41 43 45 47 49 50 51 53 56 58 59 62 64 67 68 71 71 71 72 73 73 74 73 69 69 66 65 64 64 64 59 59 65 70 75
30 30 31 32 34 35 35 37 38 39 41 42 44 46 48 50 51 51 53 56 58 60 62 64 64 63 65 65 63 63 63 64 66 68 75 76 76 73 75 76 71 68 63 61
26 27 26 27 28 31 31 33 35 35 37 38 40 40 40 42 44 45 45 46 48 47 47 48 47 49 50 50 48 50 52 55 59 61 62 66 67 68 70 71 70 71 72 69
21 21 22 24 23 24 27 29 30 31 33 34 37 39 41 41 41 43 45 45 47 49 52 52 50 50 51 52 53 53 52 51 51 51 53 55 56 57 59 61 60 60 62 63
18 19 19 19 19 21 22 25 26 26 28 30 31 33 34 34 37 38 40 42 43 45 46 47 48 49 51 53 55 56 56 57 57 57 58 59 60 61 61 60 59 59 59 59
19 21 21 22 24 26 28 30 33 35 36 37 38 39 41 41 43 44 45 46 48 49 50 51 51 52 53 54 55 57 58 58 59 60 61 63 65 66 68 69 69 69 69 68
22 23 26 29 31 33 35 35 35 36 38 40 40 41 44 45 45 46 46 48 50 52 53 54 55 56 57 58 59 61 63 63 64 65 66 68 70 72 73 74 74 76 76 77
Wind_Direction
266 269 278 271 270 273 275 277 278 282 280 276 274 270 266 271 279 276 277 278 277 273 266 268 268 264 263 262 263 267 272 274 277 278 280 283 289 292 294 293 293 291 287 281
272 273 271 270 273 274 275 278 278 277 277 279 280 279 274 272 273 276 277 274 275 275 271 268 267 269 268 265 266 268 271 274 275 276 279 284 288 289 291 292 293 291 285 280
270 272 267 270 272 274 277 276 276 275 271 274 278 276 276 275 275 276 280 276 276 276 274 271 266 265 266 268 268 270 272 274 273 274 278 281 284 286 289 290 290 290 284 278
268 268 269 268 270 271 269 272 274 274 274 274 274 277 275 279 272 273 270 272 279 276 274 272 269 268 268 270 270 270 271 271 271 272 274 278 282 285 288 289 289 285 281 276
269 268 265 265 267 267 270 269 270 271 273 273 273 277 283 281 275 271 277 277 274 273 270 266 264 264 266 267 267 269 269 269 269 270 273 277 281 285 288 288 285 281 278 273
263 265 267 268 266 268 269 271 272 272 272 270 276 281 277 283 284 281 277 279 275 270 266 265 265 268 266 266 268 267 267 267 269 271 274 276 280 283 284 281 278 275 273 271
264 263 265 268 269 270 271 271 271 270 270 274 277 276 277 278 274 276 274 270 269 270 266 263 262 265 266 268 268 268 269 270 271 272 274 276 279 281 277 274 272 270 269 267
268 261 264 265 267 269 269 269 270 273 276 276 274 274 277 279 277 276 279 280 278 278 275 271 267 266 267 267 268 267 268 270 270 271 274 277 279 277 272 269 268 268 267 266
271 270 269 269 269 270 270 270 272 272 271 271 272 273 273 274 275 275 276 278 279 277 275 275 277 277 275 274 272 272 273 273 271 270 272 274 275 273 267 265 265 265 265 265
271 271 268 269 270 271 274 275 275 275 275 276 273 272 272 273 273 273 274 275 274 274 277 279 280 279 276 274 274 274 275 274 273 272 271 270 269 266 264 263 263 263 263 264
277 276 271 272 270 273 274 273 273 273 271 273 274 271 272 273 272 272 273 274 275 276 277 277 277 276 277 277 277 276 275 274 274 272 269 267 267 266 263 262 262 263 264 264
269 276 275 273 272 272 273 272 269 266 269 269 272 271 272 272 273 274 274 274 274 273 273 272 272 274 275 276 275 275 275 275 273 269 268 268 267 265 263 262 264 266 267 266
270 262 264 269 269 267 267 266 266 266 268 269 270 271 272 270 267 267 267 266 267 267 266 268 267 267 268 268 269 271 273 272 269 267 265 262 263 264 263 265 267 268 268 266
272 267 262 260 261 265 263 263 266 269 265 267 264 265 266 264 263 263 264 265 265 266 266 267 266 261 264 269 271 269 267 267 267 265 264 265 264 261 263 266 269 272 270 265
277 272 266 258 259 259 257 255 254 253 248 255 248 250 253 254 254 254 252 256 263 265 263 263 262 264 266 262 262 263 265 265 266 266 267 268 266 261 262 265 273 272 270 264
279 275 267 263 250 247 250 256 252 247 241 237 250 243 239 248 257 268 270 259 255 258 258 258 256 256 259 265 268 272 273 271 267 263 263 262 265 266 267 267 264 266 264 262
279 272 268 263 258 255 258 255 257 251 247 246 249 252 258 263 261 266 268 263 256 255 257 259 262 263 264 270 269 267 263 260 260 260 263 269 273 266 266 265 270 268 263 257
280 277 274 272 266 263 262 262 265 269 271 272 272 272 272 273 270 264 263 264 267 269 269 269 271 273 272 269 265 266 263 263 267 269 270 271 264 263 268 265 267 267 260 261
283 281 276 273 266 266 264 263 262 262 265 266 269 271 272 272 270 269 269 270 270 270 270 271 272 271 271 272 273 275 274 274 273 269 271 270 268 267 265 260 258 259 256 256
273 278 276 273 272 271 271 271 271 269 268 268 269 271 272 274 276 275 273 271 271 270 269 271 274 276 276 278 279 278 275 271 272 273 266 262 264 264 263 264 265 265 264 264
278 278 279 280 280 280 279 277 276 276 276 275 274 274 275 275 276 278 278 278 278 278 278 279 279 279 279 279 277 274 271 270 269 269 267 271 271 268 266 268 267 268 266 265
287 287 285 283 282 283 285 284 284 284 282 281 281 280 282 283 282 280 281 279 277 278 281 283 281 280 280 279 277 277 276 274 274 273 271 269 267 265 266 265 261 263 261 259
298 299 300 301 301 298 295 294 293 291 288 286 284 281 283 286 283 280 281 282 280 279 276 279 279 279 281 280 279 279 279 278 277 275 275 274 274 274 273 271 269 266 262 257
308 309 308 307 308 308 308 305 303 300 297 294 292 291 290 289 286 284 283 282 282 282 281 280 280 279 279 279 279 279 278 278 277 276 276 275 274 272 271 269 268 266 265 263
304 305 306 306 307 307 305 305 303 300 298 296 295 293 291 289 288 287 286 286 286 284 283 283 283 283 282 282 281 281 280 280 279 278 277 277 276 274 272 270 268 265 262 262
305 306 306 305 305 306 307 304 301 299 298 298 297 295 295 293 291 290 288 287 286 285 284 284 283 283 283 283 282 282 281 280 279 278 278 278 277 276 275 273 272 270 268 267
Height
5758 5759 5763 5760 5758 5759 5758 5757 5757 5761 5757 5753 5757 5760 5763 5759 5757 5759 5758 5756 5755 5757 5756 5756 5755 5756 5757 5758 5758 5756 5756 5756 5756 5755 5755 5755 5754 5753 5752 5750 5749 5748 5747 5747
5752 5753 5754 5751 5751 5750 5750 5750 5751 5751 5749 5743 5746 5748 5752 5754 5752 5750 5750 5749 5748 5747 5749 5748 5748 5747 5747 5749 5749 5748 5747 5747 5747 5746 5746 5746 5745 5744 5743 5741 5739 5738 5737 5737
5742 5745 5745 5744 5743 5740 5741 5740 5741 5739 5741 5736 5736 5735 5740 5747 5744 5742 5741 5740 5739 5740 5740 5740 5740 5740 5739 5739 5739 5739 5738 5738 5737 5736 5736 5736 5735 5734 5733 5731 5730 5729 5728 5728
5732 5736 5735 5734 5733 5733 5730 5731 5728 5728 5726 5726 5727 5718 5729 5737 5736 5734 5732 5731 5731 5730 5730 5729 5730 5729 5729 5729 5729 5729 5727 5727 5726 5726 5726 5726 5725 5723 5722 5721 5720 5719 5718 5717
5726 5724 5724 5723 5723 5721 5722 5720 5718 5717 5715 5713 5716 5710 5718 5721 5724 5723 5722 5721 5721 5719 5718 5718 5718 5718 5718 5718 5717 5716 5715 5715 5714 5715 5715 5715 5713 5711 5710 5710 5709 5707 5707 5706
5715 5712 5713 5713 5712 5711 5710 5709 5707 5704 5703 5699 5710 5704 5706 5708 5704 5706 5707 5707 5706 5705 5705 5705 5705 5705 5705 5704 5704 5703 5703 5702 5702 5702 5702 5701 5699 5699 5698 5697 5696 5695 5694 5694
5700 5703 5702 5701 5701 5700 5699 5697 5692 5690 5689 5692 5695 5690 5695 5693 5685 5683 5687 5688 5686 5685 5688 5688 5689 5689 5689 5688 5688 5689 5689 5689 5688 5688 5687 5687 5686 5686 5684 5683 5682 5682 5681 5681
5685 5689 5691 5690 5689 5686 5685 5685 5682 5675 5677 5679 5679 5678 5677 5675 5676 5675 5670 5669 5672 5670 5671 5672 5673 5675 5676 5675 5674 5673 5674 5674 5674 5673 5673 5672 5672 5672 5671 5669 5668 5668 5667 5667
5669 5672 5676 5675 5673 5672 5672 5668 5670 5660 5662 5659 5665 5669 5662 5660 5659 5660 5658 5655 5656 5653 5652 5655 5659 5661 5662 5661 5659 5658 5659 5660 5658 5658 5657 5656 5657 5658 5657 5655 5655 5655 5654 5654
5655 5650 5660 5660 5659 5658 5654 5653 5651 5646 5643 5642 5647 5645 5644 5646 5644 5643 5641 5640 5641 5641 5638 5638 5639 5640 5640 5640 5640 5640 5641 5641 5641 5640 5640 5640 5641 5642 5642 5642 5641 5641 5640 5639
5636 5633 5644 5640 5645 5644 5640 5636 5633 5629 5627 5624 5626 5625 5628 5627 5626 5624 5623 5621 5623 5624 5624 5622 5623 5622 5621 5621 5621 5621 5621 5622 5622 5622 5622 5622 5622 5623 5624 5625 5625 5625 5625 5625
5624 5616 5615 5619 5624 5624 5620 5617 5613 5606 5609 5607 5606 5603 5609 5609 5608 5605 5603 5604 5604 5605 5606 5605 5605 5605 5604 5604 5604 5604 5604 5605 5604 5604 5605 5604 5604 5604 5605 5607 5607 5607 5608 5608
5605 5602 5597 5599 5605 5604 5598 5593 5591 5591 5592 5591 5589 5584 5590 5589 5589 5588 5586 5585 5585 5586 5588 5589 5589 5588 5588 5587 5588 5587 5587 5586 5586 5587 5587 5587 5588 5588 5587 5588 5589 5590 5590 5591
5581 5580 5579 5579 5584 5580 5575 5574 5576 5576 5573 5574 5571 5567 5567 5570 5570 5569 5569 5569 5570 5570 5570 5570 5571 5570 5570 5570 5569 5569 5569 5569 5569 5569 5568 5569 5569 5569 5569 5568 5568 5569 5569 5570
5557 5558 5557 5561 5564 5558 5548 5554 5559 5560 5555 5556 5557 5554 5552 5553 5554 5554 5552 5553 5551 5552 5552 5552 5552 5550 5549 5550 5550 5550 5550 5549 5549 5548 5549 5549 5548 5549 5548 5547 5546 5546 5547 5548
5534 5536 5534 5542 5544 5533 5528 5531 5535 5537 5537 5535 5533 5533 5533 5534 5532 5532 5533 5535 5533 5531 5532 5530 5528 5527 5527 5528 5528 5528 5527 5527 5527 5526 5526 5525 5524 5525 5525 5524 5524 5524 5523 5523
5517 5513 5512 5518 5519 5513 5511 5514 5515 5515 5513 5512 5512 5511 5509 5508 5510 5511 5510 5512 5511 5508 5507 5505 5504 5503 5502 5502 5503 5504 5503 5502 5501 5499 5499 5499 5499 5499 5499 5498 5498 5499 5500 5499
5499 5498 5498 5499 5499 5496 5495 5496 5495 5494 5493 5492 5491 5490 5490 5489 5490 5489 5489 5487 5485 5484 5482 5481 5480 5479 5478 5478 5477 5477 5478 5478 5476 5473 5473 5473 5474 5472 5471 5472 5472 5472 5473 5473
5488 5486 5486 5485 5484 5482 5483 5482 5482 5481 5480 5477 5475 5473 5471 5471 5470 5469 5467 5466 5464 5463 5461 5459 5457 5456 5455 5454 5453 5452 5451 5449 5450 5448 5446 5446 5447 5446 5445 5446 5445 5445 5445 5446
5481 5479 5478 5475 5473 5471 5472 5469 5467 5467 5467 5465 5463 5461 5459 5457 5454 5452 5450 5449 5447 5445 5444 5442 5439 5437 5435 5433 5431 5430 5431 5431 5428 5428 5427 5425 5423 5422 5423 5423 5421 5420 5420 5420
5473 5471 5467 5465 5463 5462 5461 5459 5457 5456 5458 5452 5450 5448 5446 5444 5443 5438 5436 5433 5431 5428 5425 5423 5420 5417 5415 5413 5410 5408 5406 5405 5404 5402 5402 5402 5401 5400 5401 5401 5400 5400 5400 5400
5465 5463 5460 5458 5456 5455 5451 5448 5447 5445 5441 5440 5437 5435 5432 5429 5427 5424 5421 5418 5415 5411 5407 5405 5404 5400 5397 5395 5393 5389 5387 5385 5384 5382 5380 5378 5377 5376 5376 5378 5377 5377 5377 5377
5459 5457 5455 5453 5449 5446 5443 5440 5437 5434 5431 5429 5426 5423 5421 5416 5413 5410 5407 5404 5400 5397 5395 5392 5389 5386 5380 5377 5376 5374 5370 5369 5367 5365 5363 5361 5359 5357 5357 5357 5356 5356 5355 5355
5454 5451 5449 5447 5443 5440 5437 5433 5430 5426 5423 5419 5416 5412 5408 5406 5401 5398 5394 5390 5386 5382 5379 5376 5373 5369 5366 5361 5358 5355 5353 5351 5350 5348 5345 5342 5340 5338 5338 5337 5337 5337 5337 5336
5449 5446 5443 5440 5437 5433 5429 5426 5421 5416 5412 5408 5404 5400 5395 5392 5388 5384 5380 5375 5370 5367 5362 5359 5355 5352 5347 5343 5339 5335 5332 5330 5328 5326 5323 5320 5318 5317 5317 5316 5316 5315 5315 5316
5443 5440 5437 5433 5429 5424 5420 5415 5412 5407 5401 5396 5392 5387 5381 5377 5373 5369 5365 5359 5354 5350 5345 5341 5337 5333 5328 5324 5320 5315 5311 5309 5306 5303 5300 5297 5295 5292 5290 5289 5289 5288 5288 5288